H1 CPF 2 NER 2025 3 28 9 087 01 glonass131 H2 1301901 9131 39155 2025 3 28 0 0 0 2025 3 31 23 45 0 900 1 1 0 0 0 1 H9 10 0 60762 0.00000 0 -10678761.517 815817.403 -23098782.069 10 0 60762 900.00000 0 -11139184.856 -1994206.580 -22813744.050 10 0 60762 1800.00000 0 -11792427.171 -4700653.974 -22083483.197 10 0 60762 2700.00000 0 -12610826.144 -7238818.911 -20922548.919 10 0 60762 3600.00000 0 -13556194.612 -9550966.243 -19353892.158 10 0 60762 4500.00000 0 -14581465.730 -11588484.379 -17408389.613 10 0 60762 5400.00000 0 -15632727.785 -13313650.130 -15124213.737 10 0 60762 6300.00000 0 -16651560.722 -14700934.204 -12546062.826 10 0 60762 7200.00000 0 -17577574.086 -15737795.878 -9724268.167 10 0 60762 8100.00000 0 -18351038.347 -16424937.352 -6713797.271 10 0 60762 9000.00000 0 -18915498.319 -16776011.041 -3573173.930 10 0 60762 9900.00000 0 -19220258.969 -16816796.022 -363337.010 10 0 60762 10800.00000 0 -19222640.008 -16583881.723 2853539.411 10 0 60762 11700.00000 0 -18889905.998 -16122917.007 6015241.822 10 0 60762 12600.00000 0 -18200792.765 -15486500.226 9060706.397 10 0 60762 13500.00000 0 -17146567.993 -14731799.913 11931179.639 10 0 60762 14400.00000 0 -15731583.280 -13918006.064 14571329.788 10 0 60762 15300.00000 0 -13973295.817 -13103718.146 16930289.495 10 0 60762 16200.00000 0 -11901759.352 -12344377.786 18962611.953 10 0 60762 17100.00000 0 -9558605.348 -11689851.718 20629124.407 10 0 60762 18000.00000 0 -6995555.609 -11182264.013 21897664.764 10 0 60762 18900.00000 0 -4272526.111 -10854166.296 22743689.102 10 0 60762 19800.00000 0 -1455397.995 -10727120.944 23150739.790 10 0 60762 20700.00000 0 1386455.117 -10810755.668 23110766.007 10 0 60762 21600.00000 0 4182784.471 -11102329.082 22624290.576 10 0 60762 22500.00000 0 6865123.155 -11586826.400 21700419.174 10 0 60762 23400.00000 0 9369375.511 -12237583.121 20356690.303 10 0 60762 24300.00000 0 11638233.856 -13017413.113 18618766.792 10 0 60762 25200.00000 0 13623323.592 -13880196.759 16519972.228 10 0 60762 26100.00000 0 15286987.894 -14772865.515 14100678.395 10 0 60762 27000.00000 0 16603637.096 -15637702.191 11407552.742 10 0 60762 27900.00000 0 17560605.169 -16414862.194 8492677.794 10 0 60762 28800.00000 0 18158475.511 -17045010.665 5412557.460 10 0 60762 29700.00000 0 18410860.277 -17471964.256 2227028.073 10 0 60762 30600.00000 0 18343640.432 -17645224.908 -1001905.397 10 0 60762 31500.00000 0 17993696.833 -17522296.385 -4211285.075 10 0 60762 32400.00000 0 17407184.841 -17070682.635 -7338443.198 10 0 60762 33300.00000 0 16637425.108 -16269479.916 -10322246.514 10 0 60762 34200.00000 0 15742500.428 -15110491.725 -13104315.471 10 0 60762 35100.00000 0 14782661.816 -13598815.880 -15630191.891 10 0 60762 36000.00000 0 13817655.790 -11752876.008 -17850429.688 10 0 60762 36900.00000 0 12904088.554 -9603893.930 -19721584.824 10 0 60762 37800.00000 0 12092941.275 -7194823.863 -21207083.069 10 0 60762 38700.00000 0 11427344.003 -4578792.893 -22277947.024 10 0 60762 39600.00000 0 10940704.260 -1817113.742 -22913367.203 10 0 60762 40500.00000 0 10655270.549 1023045.750 -23101105.712 10 0 60762 41400.00000 0 10581191.728 3871237.364 -22837724.959 10 0 60762 42300.00000 0 10716111.340 6656442.138 -22128637.805 10 0 60762 43200.00000 0 11045312.562 9309800.422 -20987979.559 10 0 60762 44100.00000 0 11542405.493 11767247.495 -19438306.039 10 0 60762 45000.00000 0 12170525.192 13971944.655 -17510125.552 10 0 60762 45900.00000 0 12883987.163 15876405.055 -15241276.012 10 0 60762 46800.00000 0 13630327.733 17444227.260 -12676161.381 10 0 60762 47700.00000 0 14352640.936 18651366.566 -9864864.265 10 0 60762 48600.00000 0 14992111.525 19486894.186 -6862153.637 10 0 60762 49500.00000 0 15490636.249 19953216.179 -3726408.338 10 0 60762 50400.00000 0 15793422.565 20065746.772 -518478.266 10 0 60762 51300.00000 0 15851455.758 19852053.419 2699494.192 10 0 60762 52200.00000 0 15623731.684 19350512.625 5865269.708 10 0 60762 53100.00000 0 15079162.794 18608535.364 8917701.974 10 0 60762 54000.00000 0 14198079.136 17680438.090 11797900.209 10 0 60762 54900.00000 0 12973263.086 16625049.141 14450343.379 10 0 60762 55800.00000 0 11410475.873 15503150.498 16823926.611 10 0 60762 56700.00000 0 9528454.686 14374860.736 18872921.863 10 0 60762 57600.00000 0 7358380.501 13297066.843 20557836.695 10 0 60762 58500.00000 0 4942837.988 12321010.035 21846156.801 10 0 60762 59400.00000 0 2334308.993 11490124.168 22712959.952 10 0 60762 60300.00000 0 -406740.371 10838214.992 23141391.010 10 0 60762 61200.00000 0 -3214102.808 10388054.805 23122989.689 10 0 60762 62100.00000 0 -6018313.623 10150450.456 22657864.866 10 0 60762 63000.00000 0 -8749275.850 10123823.805 21754711.413 10 0 60762 63900.00000 0 -11338921.151 10294323.222 20430667.815 10 0 60762 64800.00000 0 -13723798.851 10636463.319 18711015.248 10 0 60762 65700.00000 0 -15847487.485 11114268.530 16628721.351 10 0 60762 66600.00000 0 -17662729.470 11682875.267 14223834.672 10 0 60762 67500.00000 0 -19133199.901 12290527.996 11542738.642 10 0 60762 68400.00000 0 -20234834.623 12880887.425 8637276.846 10 0 60762 69300.00000 0 -20956660.225 13395555.039 5563764.421 10 0 60762 70200.00000 0 -21301088.985 13776707.930 2381903.233 10 0 60762 71100.00000 0 -21283663.978 13969732.035 -846378.817 10 0 60762 72000.00000 0 -20932262.960 13925740.742 -4058141.568 10 0 60762 72900.00000 0 -20285792.939 13603869.705 -7190674.909 10 0 60762 73800.00000 0 -19392429.676 12973247.426 -10182743.696 10 0 60762 74700.00000 0 -18307476.498 12014554.535 -12975808.756 10 0 60762 75600.00000 0 -17090933.833 10721102.163 -15515197.590 10 0 60762 76500.00000 0 -15804883.916 9099380.449 -17751199.327 10 0 60762 77400.00000 0 -14510803.453 7169051.339 -19640059.997 10 0 60762 78300.00000 0 -13266920.348 4962384.075 -21144856.601 10 0 60762 79200.00000 0 -12125728.545 2523156.164 -22236231.282 10 0 60762 80100.00000 0 -11131768.016 -94934.058 -22892970.220 10 0 60762 81000.00000 0 -10319764.939 -2830275.943 -23102415.621 10 0 60762 81900.00000 0 -9713211.067 -5615690.751 -22860703.013 10 0 60762 82800.00000 0 -9323441.811 -8381011.914 -22172820.081 10 0 60762 83700.00000 0 -9149250.573 -11055791.984 -21052487.232 10 0 60762 84600.00000 0 -9177053.459 -13572022.011 -19521863.942 10 0 60762 85500.00000 0 -9381594.705 -15866749.160 -17611088.549 10 0 60763 0.00000 0 -9727159.968 -17884483.257 -15357662.780 10 0 60763 900.00000 0 -10169243.359 -19579293.811 -12805693.774 10 0 60763 1800.00000 0 -10656594.516 -20916509.105 -10005013.436 10 0 60763 2700.00000 0 -11133557.527 -21873952.561 -7010189.945 10 0 60763 3600.00000 0 -11542600.824 -22442665.109 -3879454.938 10 0 60763 4500.00000 0 -11826930.500 -22627087.983 -673567.133 10 0 60763 5400.00000 0 -11933076.646 -22444701.646 2545364.943 10 0 60763 6300.00000 0 -11813344.308 -21925139.285 5715078.289 10 0 60763 7200.00000 0 -11428027.047 -21108814.714 8774346.237 10 0 60763 8100.00000 0 -10747291.557 -20045124.139 11664142.820 10 0 60763 9000.00000 0 -9752655.900 -18790298.107 14328759.813 10 0 60763 9900.00000 0 -8438000.866 -17404993.568 16716856.828 10 0 60763 10800.00000 0 -6810073.204 -15951725.911 18782426.487 10 0 60763 11700.00000 0 -4888460.091 -14492246.586 20485658.410 10 0 60763 12600.00000 0 -2705035.435 -13084973.656 21793687.604 10 0 60763 13500.00000 0 -302899.746 -11782580.014 22681214.822 10 0 60763 14400.00000 0 2265144.608 -10629837.480 23130988.444 10 0 60763 15300.00000 0 4938522.364 -9661804.620 23134139.457 10 0 60763 16200.00000 0 7651141.974 -8902432.464 22690363.257 10 0 60763 17100.00000 0 10333889.937 -8363645.650 21807944.108 10 0 60763 18000.00000 0 12917262.893 -8044937.649 20503620.416 10 0 60763 18900.00000 0 15334031.358 -7933498.094 18802291.372 10 0 60763 19800.00000 0 17521826.770 -8004868.722 16736568.052 10 0 60763 20700.00000 0 19425545.662 -8224102.714 14346174.848 10 0 60763 21600.00000 0 20999471.112 -8547381.210 11677209.910 10 0 60763 22500.00000 0 22209022.303 -8924021.250 8781276.262 10 0 60763 23400.00000 0 23032057.401 -9298792.249 5714498.255 10 0 60763 24300.00000 0 23459672.977 -9614444.177 2536440.907 10 0 60763 25200.00000 0 23496463.862 -9814340.528 -691047.632 10 0 60763 26100.00000 0 23160229.979 -9845083.555 -3905047.847 10 0 60763 27000.00000 0 22481140.349 -9659018.495 -7042810.331 10 0 60763 27900.00000 0 21500387.992 -9216507.791 -10043001.135 10 0 60763 28800.00000 0 20268391.848 -8487875.482 -12846924.474 10 0 60763 29700.00000 0 18842621.846 -7454935.777 -15399696.403 10 0 60763 30600.00000 0 17285140.084 -6112037.548 -17651343.936 10 0 60763 31500.00000 0 15659963.749 -4466577.545 -19557805.609 10 0 60763 32400.00000 0 14030363.321 -2538958.255 -21081811.815 10 0 60763 33300.00000 0 12456212.385 -361990.655 -22193626.084 10 0 60763 34200.00000 0 10991502.963 2020233.596 -22871631.755 10 0 60763 35100.00000 0 9682132.651 4553952.934 -23102752.219 10 0 60763 36000.00000 0 8564057.618 7177761.145 -22882696.774 10 0 60763 36900.00000 0 7661889.162 9824960.838 -22216028.120 10 0 60763 37800.00000 0 6987991.836 12426145.112 -21116051.493 10 0 60763 38700.00000 0 6542119.145 14911898.057 -19604529.301 10 0 60763 39600.00000 0 6311599.442 17215500.111 -17711228.747 10 0 60763 40500.00000 0 6272060.957 19275524.865 -15473313.360 10 0 60763 41400.00000 0 6388661.938 21038219.114 -12934592.315 10 0 60763 42300.00000 0 6617770.646 22459567.842 -10144644.140 10 0 60763 43200.00000 0 6909021.304 23506959.769 -7157833.615 10 0 60763 44100.00000 0 7207656.819 24160386.436 -4032242.354 10 0 60763 45000.00000 0 7457057.747 24413127.751 -828534.896 10 0 60763 45900.00000 0 7601349.972 24271898.608 2391217.147 10 0 60763 46800.00000 0 7587981.163 23756453.691 5564730.135 10 0 60763 47700.00000 0 7370158.161 22898669.836 8630699.967 10 0 60763 48600.00000 0 6909043.996 21741146.578 11529968.246 10 0 60763 49500.00000 0 6175623.747 20335384.815 14206642.088 10 0 60763 50400.00000 0 5152162.539 18739620.151 16609147.881 10 0 60763 51300.00000 0 3833195.856 17016400.919 18691200.950 10 0 60763 52200.00000 0 2226011.520 15230010.586 20412674.762 10 0 60763 53100.00000 0 350603.226 13443839.956 21740355.162 10 0 60763 54000.00000 0 -1760903.334 11717816.171 22648567.131 10 0 60763 54900.00000 0 -4065329.641 10105992.967 23119663.501 10 0 60763 55800.00000 0 -6509986.565 8654400.040 23144367.130 10 0 60763 56700.00000 0 -9034618.780 7399239.098 22721960.135 10 0 60763 57600.00000 0 -11573674.319 6365500.406 21860315.936 10 0 60763 58500.00000 0 -14058808.649 5566057.065 20575772.154 10 0 60763 59400.00000 0 -16421522.645 5001275.187 18892844.801 10 0 60763 60300.00000 0 -18595827.603 4659157.484 16843786.731 10 0 60763 61200.00000 0 -20520828.180 4516016.039 14467996.095 10 0 60763 62100.00000 0 -22143116.494 4537648.225 11811283.319 10 0 60763 63000.00000 0 -23418877.184 4680968.513 8925008.153 10 0 60763 63900.00000 0 -24315614.051 4896029.328 5865101.283 10 0 60763 64800.00000 0 -24813423.898 5128346.945 2690987.922 10 0 60763 65700.00000 0 -24905761.415 5321434.563 -535566.518 10 0 60763 66600.00000 0 -24599660.165 5419434.758 -3751666.113 10 0 60763 67500.00000 0 -23915397.707 5369738.262 -6894525.047 10 0 60763 68400.00000 0 -22885616.834 5125475.583 -9902713.373 10 0 60763 69300.00000 0 -21553938.605 4647772.702 -12717381.387 10 0 60763 70200.00000 0 -19973125.220 3907671.729 -15283436.228 10 0 60763 71100.00000 0 -18202870.678 2887631.574 -17550645.092 10 0 60763 72000.00000 0 -16307313.692 1582541.839 -19474640.997 10 0 60763 72900.00000 0 -14352379.575 204.355 -21017809.311 10 0 60763 73800.00000 0 -12403065.256 -1838739.934 -22150036.061 10 0 60763 74700.00000 0 -10520783.901 -3901436.744 -22849302.338 10 0 60763 75600.00000 0 -8760882.656 -6143970.749 -23102112.780 10 0 60763 76500.00000 0 -7170439.013 -8512995.429 -22903749.991 10 0 60763 77400.00000 0 -5786428.763 -10947770.917 -22258350.713 10 0 60763 78300.00000 0 -4634341.800 -13382522.886 -21178803.582 10 0 60763 79200.00000 0 -3727302.328 -15749022.179 -19686472.107 10 0 60763 80100.00000 0 -3065727.900 -17979275.777 -17810750.198 10 0 60763 81000.00000 0 -2637538.431 -20008215.652 -15588460.997 10 0 60763 81900.00000 0 -2418902.735 -21776272.761 -13063112.743 10 0 60763 82800.00000 0 -2375487.436 -23231728.971 -10284028.161 10 0 60763 83700.00000 0 -2464152.051 -24332749.813 -7305366.036 10 0 60763 84600.00000 0 -2635015.717 -25049015.013 -4185055.453 10 0 60763 85500.00000 0 -2833806.028 -25362881.112 -983664.416 10 0 60764 0.00000 0 -3004389.346 -25270030.464 2236774.300 10 0 60764 900.00000 0 -3091375.352 -24779582.388 5413959.041 10 0 60764 1800.00000 0 -3042686.007 -23913664.796 8486509.887 10 0 60764 2700.00000 0 -2811981.988 -22706466.447 11395137.780 10 0 60764 3600.00000 0 -2360845.645 -21202811.093 14083766.813 10 0 60764 4500.00000 0 -1660630.498 -19456313.882 16500591.655 10 0 60764 5400.00000 0 -693901.203 -17527196.774 18599051.672 10 0 60764 6300.00000 0 544595.226 -15479852.947 20338705.323 10 0 60764 7200.00000 0 2047466.996 -13380259.802 21685990.231 10 0 60764 8100.00000 0 3794743.575 -11293345.736 22614856.305 10 0 60764 9000.00000 0 5754468.692 -9280417.460 23107261.292 10 0 60764 9900.00000 0 7883797.704 -7396752.066 23153520.139 10 0 60764 10800.00000 0 10130556.609 -5689451.478 22752501.671 10 0 60764 11700.00000 0 12435201.308 -4195646.632 21911668.240 10 0 60764 12600.00000 0 14733099.315 -2941124.997 20646956.256 10 0 60764 13500.00000 0 16957042.591 -1939438.351 18982497.934 10 0 60764 14400.00000 0 19039890.032 -1191528.609 16950187.095 10 0 60764 15300.00000 0 20917231.833 -685888.660 14589094.610 10 0 60764 16200.00000 0 22529965.934 -399253.275 11944741.918 10 0 60764 17100.00000 0 23826679.133 -297793.119 9068243.957 10 0 60764 18000.00000 0 24765732.328 -338763.569 6015335.922 10 0 60764 18900.00000 0 25316960.619 -472540.325 2845301.107 10 0 60764 19800.00000 0 25462914.333 -644956.662 -380180.193 10 0 60764 20700.00000 0 25199585.781 -799843.379 -3598238.225 10 0 60764 21600.00000 0 24536588.153 -881662.829 -6746053.476 10 0 60764 22500.00000 0 23496776.339 -838123.438 -9762102.737 10 0 60764 23400.00000 0 22115323.562 -622661.078 -12587385.063 10 0 60764 24300.00000 0 20438291.578 -196678.852 -15166601.216 10 0 60764 25200.00000 0 18520754.416 468553.127 -17449260.933 10 0 60764 26100.00000 0 16424555.363 1390421.798 -19390693.869 10 0 60764 27000.00000 0 14215793.056 2573984.429 -20952942.290 10 0 60764 27900.00000 0 11962144.305 4011515.106 -22105516.413 10 0 60764 28800.00000 0 9730138.349 5682605.018 -22825996.509 10 0 60764 29700.00000 0 7582498.930 7554812.907 -23100469.580 10 0 60764 30600.00000 0 5575667.202 9584838.045 -22923792.297 10 0 60764 31500.00000 0 3757610.168 11720165.508 -22299675.803 10 0 60764 32400.00000 0 2166006.296 13901113.197 -21240592.039 10 0 60764 33300.00000 0 826883.249 16063193.136 -19767505.040 10 0 60764 34200.00000 0 -246237.319 18139686.356 -17909434.377 10 0 60764 35100.00000 0 -1052654.969 20064322.218 -15702861.295 10 0 60764 36000.00000 0 -1604256.080 21773949.087 -13190991.159 10 0 60764 36900.00000 0 -1924743.576 23211084.383 -10422888.562 10 0 60764 37800.00000 0 -2048367.105 24326237.791 -7452503.668 10 0 60764 38700.00000 0 -2018210.731 25079911.706 -4337610.147 10 0 60764 39600.00000 0 -1884113.287 25444197.106 -1138676.425 10 0 60764 40500.00000 0 -1700311.256 25403900.488 2082307.242 10 0 60764 41400.00000 0 -1522904.855 24957157.403 5263023.126 10 0 60764 42300.00000 0 -1407254.508 24115509.581 8342019.057 10 0 60764 43200.00000 0 -1405416.897 22903444.771 11259878.150 10 0 60764 44100.00000 0 -1563727.365 21357420.323 13960344.091 10 0 60764 45000.00000 0 -1920628.800 19524412.306 16391382.199 10 0 60764 45900.00000 0 -2504836.425 17460050.798 18506157.992 10 0 60764 46800.00000 0 -3333914.012 15226418.217 20263916.769 10 0 60764 47700.00000 0 -4413320.070 12889600.692 21630749.492 10 0 60764 48600.00000 0 -5735963.640 10517091.926 22580232.269 10 0 60764 49500.00000 0 -7282288.805 8175154.588 23093928.711 10 0 60764 50400.00000 0 -9020885.932 5926245.863 23161746.440 10 0 60764 51300.00000 0 -10909606.535 3826611.245 22782141.173 10 0 60764 52200.00000 0 -12897138.441 1924144.061 21962163.918 10 0 60764 53100.00000 0 -14924979.134 256598.044 20717349.118 10 0 60764 54000.00000 0 -16929728.688 -1149773.626 19071443.925 10 0 60764 54900.00000 0 -18845610.082 -2281096.140 17055981.360 10 0 60764 55800.00000 0 -20607114.463 -3136230.247 14709702.798 10 0 60764 56700.00000 0 -22151662.700 -3726592.497 12077838.061 10 0 60764 57600.00000 0 -23422172.709 -4075444.209 9211254.339 10 0 60764 58500.00000 0 -24369424.573 -4216677.092 6165488.180 10 0 60764 59400.00000 0 -24954122.761 -4193145.002 2999677.681 10 0 60764 60300.00000 0 -25148566.451 -4054611.019 -224585.285 10 0 60764 61200.00000 0 -24937854.658 -3855396.235 -3444460.419 10 0 60764 62100.00000 0 -24320572.190 -3651830.287 -6597097.698 10 0 60764 63000.00000 0 -23308924.365 -3499613.063 -9620883.717 10 0 60764 63900.00000 0 -21928312.158 -3451201.757 -12456669.195 10 0 60764 64800.00000 0 -20216363.731 -3553336.937 -15048951.198 10 0 60764 65700.00000 0 -18221462.125 -3844815.804 -17346984.401 10 0 60764 66600.00000 0 -16000831.086 -4354610.305 -19305797.108 10 0 60764 67500.00000 0 -13618260.341 -5100412.790 -20887090.031 10 0 60764 68400.00000 0 -11141567.442 -6087673.233 -22059998.574 10 0 60764 69300.00000 0 -8639904.638 -7309170.421 -22801702.572 10 0 60764 70200.00000 0 -6181025.717 -8745136.052 -23097871.160 10 0 60764 71100.00000 0 -3828629.005 -10363926.588 -22942934.232 10 0 60764 72000.00000 0 -1639888.961 -12123213.778 -22340175.927 10 0 60764 72900.00000 0 336720.009 -13971642.441 -21301649.596 10 0 60764 73800.00000 0 2063217.102 -15850884.159 -19847917.501 10 0 60764 74700.00000 0 3513452.546 -17697998.758 -18007622.242 10 0 60764 75600.00000 0 4673935.500 -19448002.798 -15816900.289 10 0 60764 76500.00000 0 5544121.038 -21036536.034 -13318651.104 10 0 60764 77400.00000 0 6136148.027 -22402513.225 -10561678.051 10 0 60764 78300.00000 0 6474042.961 -23490650.077 -7599719.571 10 0 60764 79200.00000 0 6592427.151 -24253758.096 -4490390.911 10 0 60764 80100.00000 0 6534785.177 -24654713.528 -1294058.064 10 0 60764 81000.00000 0 6351370.335 -24668019.799 1927333.608 10 0 60764 81900.00000 0 6096837.252 -24280900.331 5111453.289 10 0 60764 82800.00000 0 5827702.407 -23493878.397 8196778.426 10 0 60764 83700.00000 0 5599739.546 -22320822.028 11123766.163 10 0 60764 84600.00000 0 5465418.866 -20788453.969 13835981.347 10 0 60764 85500.00000 0 5471496.260 -18935348.306 16281161.210 10 0 60765 0.00000 0 5656852.162 -16810456.243 18412198.204 10 0 60765 900.00000 0 6050669.018 -14471220.646 20188025.487 10 0 60765 1800.00000 0 6671022.013 -11981359.328 21574387.476 10 0 60765 2700.00000 0 7523941.426 -9408403.165 22544486.488 10 0 60765 3600.00000 0 8602985.502 -6821091.265 23079491.709 10 0 60765 4500.00000 0 9889342.543 -4286727.098 23168902.877 10 0 60765 5400.00000 0 11352459.647 -1868602.334 22810761.802 10 0 60765 6300.00000 0 12951174.420 376407.549 22011707.158 10 0 60765 7200.00000 0 14635305.605 2399978.277 20786870.260 10 0 60765 8100.00000 0 16347639.722 4164115.177 19159611.909 10 0 60765 9000.00000 0 18026234.202 5642501.552 17161102.918 10 0 60765 9900.00000 0 19606943.811 6821360.507 14829753.641 10 0 60765 10800.00000 0 21026066.934 7699793.201 12210500.644 10 0 60765 11700.00000 0 22223002.221 8289577.727 9353961.599 10 0 60765 12600.00000 0 23142804.280 8614435.190 6315472.493 10 0 60765 13500.00000 0 23738530.110 8708791.986 3154024.164 10 0 60765 14400.00000 0 23973275.558 8616088.980 -68882.114 10 0 60765 15300.00000 0 23821813.210 8386708.130 -3290437.762 10 0 60765 16200.00000 0 23271759.402 8075604.200 -6447764.538 10 0 60765 17100.00000 0 22324217.700 7739742.753 -9479161.084 10 0 60765 18000.00000 0 20993868.543 7435454.721 -12325331.908 10 0 60765 18900.00000 0 19308498.684 7215822.197 -14930572.348 10 0 60765 19800.00000 0 17307988.476 7128209.226 -17243883.778 10 0 60765 20700.00000 0 15042798.835 7212045.408 -19219994.729 10 0 60765 21600.00000 0 12572021.646 7496959.192 -20820265.747 10 0 60765 22500.00000 0 9961076.445 8001342.440 -22013458.633 10 0 60765 23400.00000 0 7279151.612 8731408.904 -22776353.835 10 0 60765 24300.00000 0 4596499.099 9680787.452 -23094203.458 10 0 60765 25200.00000 0 1981697.792 10830667.460 -22961011.212 10 0 60765 26100.00000 0 -500998.632 12150489.644 -22379634.512 10 0 60765 27000.00000 0 -2794117.646 13599151.926 -21361708.021 10 0 60765 27900.00000 0 -4849125.119 15126677.852 -19927391.704 10 0 60765 28800.00000 0 -6628194.680 16676275.318 -18104950.217 10 0 60765 29700.00000 0 -8105517.282 18186697.065 -15930173.855 10 0 60765 30600.00000 0 -9268099.042 19594802.030 -13445654.366 10 0 60765 31500.00000 0 -10116017.514 20838208.611 -10699931.732 10 0 60765 32400.00000 0 -10662129.614 21857927.820 -7746530.238 10 0 60765 33300.00000 0 -10931247.530 22600865.787 -4642904.072 10 0 60765 34200.00000 0 -10958821.045 23022091.349 -1449314.023 10 0 60765 35100.00000 0 -10789185.005 23086774.985 1772342.275 10 0 60765 36000.00000 0 -10473448.178 22771719.658 4959723.758 10 0 60765 36900.00000 0 -10067113.969 22066421.544 8051240.270 10 0 60765 37800.00000 0 -9627533.767 20973618.364 10987225.677 10 0 60765 38700.00000 0 -9211299.714 19509304.244 13711068.542 10 0 60765 39600.00000 0 -8871685.457 17702211.780 16170280.396 10 0 60765 40500.00000 0 -8656240.716 15592783.552 18317483.156 10 0 60765 41400.00000 0 -8604638.706 13231675.597 20111299.034 10 0 60765 42300.00000 0 -8746864.786 10677853.959 21517128.027 10 0 60765 43200.00000 0 -9101820.722 7996361.391 22507800.091 10 0 60765 44100.00000 0 -9676402.096 5255844.175 23064091.094 10 0 60765 45000.00000 0 -10465087.444 2525938.528 23175093.639 10 0 60765 45900.00000 0 -11450057.199 -125378.347 22838435.965 10 0 60765 46800.00000 0 -12601839.338 -2634365.892 22060344.295 10 0 60765 47700.00000 0 -13880457.326 -4943922.254 20855546.208 10 0 60765 48600.00000 0 -15237035.538 -7005713.023 19247015.036 10 0 60765 49500.00000 0 -16615798.345 -8781939.314 17265557.763 10 0 60765 50400.00000 0 -17956382.341 -10246671.734 14949251.629 10 0 60765 51300.00000 0 -19196367.462 -11386693.947 12342737.425 10 0 60765 52200.00000 0 -20273922.624 -12201819.185 9496380.433 10 0 60765 53100.00000 0 -21130455.456 -12704664.632 6465312.951 10 0 60765 54000.00000 0 -21713154.275 -12919891.197 3308375.259 10 0 60765 54900.00000 0 -21977313.691 -12882938.912 86974.633 10 0 60765 55800.00000 0 -21888343.334 -12638309.990 -3136115.472 10 0 60765 56700.00000 0 -21423371.733 -12237471.551 -6297991.959 10 0 60765 57600.00000 0 -20572374.133 -11736467.004 -9336868.792 10 0 60765 58500.00000 0 -19338773.143 -11193338.475 -12193307.391 10 0 60765 59400.00000 0 -17739483.735 -10665471.442 -14811404.275 10 0 60765 60300.00000 0 -15804398.269 -10206976.716 -17139910.145 10 0 60765 61200.00000 0 -13575331.679 -9866223.601 -19133255.992 10 0 60765 62100.00000 0 -11104470.601 -9683631.618 -20752463.956 10 0 60765 63000.00000 0 -8452391.903 -9689816.901 -21965923.428 10 0 60765 63900.00000 0 -5685734.843 -9904173.681 -22750016.026 10 0 60765 64800.00000 0 -2874625.921 -10333952.082 -23089576.746 10 0 60765 65700.00000 0 -89965.930 -10973871.591 -22978182.392 10 0 60765 66600.00000 0 2599305.774 -11806286.032 -22418262.367 10 0 60765 67500.00000 0 5128854.344 -12801891.871 -21421030.844 10 0 60765 68400.00000 0 7441389.068 -13920948.174 -20006243.271 10 0 60765 69300.00000 0 9488798.099 -15114954.649 -18201783.784 10 0 60765 70200.00000 0 11233890.502 -16328714.780 -16043093.631 10 0 60765 71100.00000 0 12651675.158 -17502695.107 -13572453.746 10 0 60765 72000.00000 0 13730126.114 -18575579.545 -10838137.431 10 0 60765 72900.00000 0 14470406.014 -19486910.079 -7893451.409 10 0 60765 73800.00000 0 14886542.232 -20179702.239 -4795685.342 10 0 60765 74700.00000 0 15004573.231 -20602925.577 -1604991.376 10 0 60765 75600.00000 0 14861204.592 -20713745.771 1616783.891 10 0 60765 76500.00000 0 14502034.192 -20479435.658 4807292.249 10 0 60765 77400.00000 0 13979423.268 -19878876.787 7904878.735 10 0 60765 78300.00000 0 13350104.078 -18903590.520 10849756.352 10 0 60765 79200.00000 0 12672624.902 -17558257.309 13585139.376 10 0 60765 80100.00000 0 12004739.029 -15860703.829 16058315.162 10 0 60765 81000.00000 0 11400845.901 -13841359.327 18221635.986 10 0 60765 81900.00000 0 10909589.838 -11542203.764 20033414.094 10 0 60765 82800.00000 0 10571714.892 -9015250.662 21458705.002 10 0 60765 83700.00000 0 10418263.708 -6320625.920 22469966.024 10 0 60765 84600.00000 0 10469194.266 -3524319.772 23047579.041 10 0 60765 85500.00000 0 10732471.557 -695702.057 23180228.495 99